Total_Precipitation_Accumulation
0.00 0.00 0.05 0.16 0.45 0.73 0.86 0.54 0.42 0.33 0.32 0.35 0.42 0.40 0.35 0.39 0.41 0.63 0.33 0.10 0.03 0.01 0.01 0.08 0.16 0.14 0.12 0.10 0.11 0.12 0.13 0.13 0.12 0.12 0.11 0.09 0.06 0.04 0.03 0.03 0.03 0.04 0.04 0.04 0.05 0.06 0.05 0.05 0.06
0.00 0.01 0.06 0.20 0.44 0.79 0.83 0.44 0.33 0.31 0.28 0.38 0.44 0.35 0.27 0.28 0.23 0.18 0.16 0.13 0.04 0.01 0.01 0.03 0.11 0.13 0.11 0.11 0.12 0.12 0.11 0.10 0.10 0.10 0.09 0.07 0.05 0.04 0.04 0.04 0.04 0.04 0.05 0.05 0.05 0.06 0.05 0.03 0.05
0.00 0.02 0.06 0.15 0.27 0.46 0.50 0.30 0.27 0.33 0.42 0.60 0.68 0.44 0.33 0.34 0.25 0.13 0.09 0.07 0.05 0.03 0.02 0.04 0.09 0.11 0.11 0.10 0.11 0.10 0.09 0.08 0.08 0.08 0.07 0.06 0.05 0.05 0.05 0.04 0.05 0.06 0.06 0.07 0.07 0.07 0.06 0.05 0.05
0.00 0.03 0.07 0.10 0.13 0.19 0.27 0.19 0.27 0.37 0.65 0.77 0.79 0.58 0.42 0.35 0.25 0.17 0.08 0.05 0.05 0.04 0.03 0.06 0.09 0.11 0.11 0.10 0.11 0.10 0.09 0.08 0.07 0.07 0.07 0.05 0.04 0.05 0.05 0.06 0.06 0.07 0.08 0.09 0.09 0.09 0.08 0.08 0.08
0.00 0.03 0.05 0.05 0.06 0.10 0.12 0.11 0.18 0.30 0.53 0.73 0.73 0.70 0.61 0.49 0.37 0.21 0.09 0.05 0.03 0.03 0.04 0.06 0.12 0.13 0.13 0.12 0.12 0.12 0.10 0.09 0.08 0.08 0.06 0.05 0.05 0.06 0.07 0.08 0.09 0.09 0.10 0.11 0.11 0.11 0.11 0.13 0.13
0.00 0.02 0.02 0.02 0.04 0.07 0.08 0.10 0.20 0.36 0.56 0.72 0.83 0.83 0.67 0.45 0.31 0.20 0.10 0.07 0.07 0.04 0.04 0.07 0.12 0.15 0.16 0.15 0.15 0.14 0.12 0.11 0.10 0.09 0.08 0.07 0.08 0.08 0.09 0.11 0.12 0.12 0.12 0.11 0.12 0.11 0.11 0.13 0.15
0.01 0.01 0.01 0.01 0.02 0.04 0.07 0.13 0.24 0.38 0.49 0.77 1.01 0.93 0.65 0.52 0.38 0.28 0.23 0.16 0.22 0.14 0.08 0.09 0.10 0.13 0.17 0.19 0.19 0.16 0.14 0.13 0.12 0.10 0.09 0.08 0.08 0.08 0.10 0.12 0.15 0.15 0.16 0.14 0.14 0.14 0.15 0.17 0.18
0.00 0.00 0.00 0.00 0.01 0.03 0.07 0.14 0.25 0.37 0.64 0.89 0.86 0.80 0.78 0.58 0.56 0.53 0.48 0.37 0.39 0.31 0.21 0.16 0.17 0.22 0.22 0.21 0.20 0.20 0.18 0.15 0.12 0.11 0.09 0.08 0.09 0.12 0.17 0.17 0.19 0.22 0.25 0.24 0.23 0.25 0.28 0.29 0.27
0.00 0.00 0.00 0.00 0.00 0.03 0.10 0.19 0.26 0.32 0.52 0.67 0.71 0.65 0.52 0.52 0.68 0.71 0.65 0.59 0.56 0.48 0.47 0.37 0.34 0.33 0.35 0.33 0.29 0.30 0.29 0.28 0.24 0.25 0.24 0.22 0.27 0.36 0.48 0.46 0.50 0.47 0.46 0.49 0.48 0.49 0.52 0.51 0.39
0.00 0.00 0.00 0.00 0.00 0.03 0.09 0.18 0.30 0.37 0.63 0.92 0.98 1.03 0.73 0.77 0.89 0.87 0.74 0.64 0.66 0.71 0.71 0.66 0.57 0.45 0.40 0.40 0.55 0.65 0.64 0.68 0.64 0.68 0.68 0.66 0.67 0.63 0.61 0.77 0.87 0.90 0.99 0.98 0.98 1.12 0.98 0.73 0.54
0.00 0.00 0.00 0.00 0.00 0.01 0.04 0.10 0.14 0.32 0.72 1.11 1.15 1.16 0.99 0.96 1.02 1.04 1.00 0.99 0.92 0.98 0.90 0.72 0.71 0.67 0.68 0.76 0.79 0.85 0.95 1.06 1.15 1.20 1.20 1.25 1.09 0.92 0.87 1.13 1.29 1.27 1.28 1.17 1.44 1.63 1.22 1.13 1.16
0.00 0.00 0.00 0.00 0.00 0.01 0.03 0.10 0.19 0.34 0.77 1.03 0.92 0.80 0.82 1.01 1.15 1.23 1.47 1.53 1.45 1.34 1.35 1.23 1.05 1.01 1.02 0.99 0.92 0.91 0.91 1.01 1.09 1.19 1.28 1.43 1.45 1.34 1.36 1.49 1.38 1.35 1.38 1.56 1.64 1.75 1.57 1.48 1.45
0.00 0.00 0.00 0.00 0.01 0.01 0.05 0.14 0.27 0.39 0.66 0.63 0.53 0.58 0.96 1.21 1.36 1.54 1.73 1.83 1.83 1.94 1.96 2.14 1.79 1.49 1.35 1.17 1.00 0.91 0.87 0.82 0.82 0.91 1.15 1.34 1.47 1.54 1.63 1.46 1.30 1.16 1.43 1.72 1.75 1.59 1.70 1.72 1.79
0.00 0.00 0.01 0.02 0.01 0.02 0.05 0.10 0.33 0.44 0.55 0.60 0.57 0.77 1.23 1.70 1.80 1.89 2.14 2.42 2.50 2.66 2.59 2.54 2.45 2.04 1.67 1.37 1.13 0.98 0.83 0.84 0.86 0.92 1.02 1.21 1.34 1.42 1.47 1.40 1.29 1.23 1.39 1.59 1.62 1.60 1.79 1.88 1.85
0.00 0.03 0.10 0.09 0.05 0.05 0.06 0.19 0.42 0.58 0.59 0.78 0.86 1.05 1.51 1.98 2.00 2.20 2.31 2.61 2.84 3.08 3.16 3.11 2.99 2.60 2.26 1.95 1.54 1.20 1.03 0.95 0.97 0.99 0.93 0.98 1.09 1.11 1.22 1.23 1.19 1.23 1.28 1.34 1.32 1.33 1.53 1.50 1.40
0.01 0.08 0.23 0.18 0.08 0.08 0.13 0.52 0.72 0.64 0.58 0.84 1.07 1.29 1.71 2.20 2.26 2.52 2.70 2.91 3.33 3.66 3.93 3.87 3.53 3.18 2.68 2.22 1.86 1.58 1.40 1.25 1.07 0.96 0.83 0.72 0.78 0.85 0.92 0.89 0.92 0.97 1.03 1.04 1.01 1.03 1.14 1.22 1.31
0.03 0.07 0.19 0.19 0.14 0.11 0.19 0.63 0.67 0.43 0.56 0.82 1.14 1.44 1.68 1.98 2.40 2.86 3.25 3.55 4.12 4.86 5.21 4.84 4.07 3.56 2.89 2.24 1.89 1.74 1.67 1.48 1.24 1.08 0.92 0.76 0.71 0.74 0.81 0.78 0.77 0.74 0.77 0.78 0.75 0.82 0.93 1.00 1.07
0.03 0.06 0.13 0.21 0.16 0.21 0.30 0.40 0.51 0.54 0.71 0.91 1.11 1.27 1.51 1.75 2.16 2.74 3.21 3.66 4.38 5.35 5.85 5.52 4.67 3.76 2.98 2.46 2.10 1.81 1.66 1.44 1.21 1.08 0.94 0.77 0.66 0.65 0.63 0.60 0.56 0.52 0.53 0.58 0.62 0.71 0.80 0.82 0.87
0.03 0.06 0.13 0.21 0.16 0.24 0.32 0.42 0.55 0.70 0.92 0.93 0.96 0.98 1.16 1.49 1.87 2.42 2.97 3.42 3.95 4.51 4.88 4.68 3.87 3.13 2.49 1.99 1.51 1.26 1.14 0.99 0.86 0.81 0.74 0.67 0.60 0.54 0.49 0.42 0.42 0.38 0.38 0.41 0.43 0.50 0.58 0.61 0.68
0.04 0.07 0.13 0.17 0.14 0.14 0.25 0.50 0.63 0.71 0.87 0.81 0.80 0.71 0.81 1.28 1.84 2.49 3.01 3.19 3.08 3.12 3.13 2.60 2.23 1.84 1.43 1.19 0.93 0.75 0.64 0.55 0.50 0.46 0.42 0.38 0.40 0.42 0.40 0.39 0.37 0.36 0.35 0.34 0.37 0.43 0.46 0.48 0.55
0.07 0.09 0.09 0.15 0.16 0.21 0.35 0.65 0.81 0.72 0.68 0.59 0.59 0.67 1.05 1.54 1.92 2.35 2.43 2.32 2.21 2.10 1.88 1.56 1.37 1.27 1.02 0.86 0.66 0.50 0.42 0.38 0.33 0.29 0.27 0.26 0.25 0.27 0.30 0.33 0.36 0.35 0.32 0.30 0.33 0.35 0.36 0.36 0.39
0.07 0.06 0.04 0.04 0.12 0.34 0.50 0.88 0.99 0.85 0.73 0.51 0.53 0.85 1.37 1.66 1.90 1.83 1.42 1.20 1.30 1.32 1.20 1.27 1.26 1.12 0.90 0.78 0.55 0.36 0.29 0.26 0.23 0.22 0.21 0.21 0.18 0.17 0.19 0.24 0.30 0.31 0.31 0.31 0.25 0.26 0.31 0.32 0.28
0.04 0.04 0.03 0.05 0.14 0.38 0.64 1.03 1.17 0.90 0.70 0.46 0.37 0.49 0.86 1.09 0.99 0.75 0.60 0.59 0.77 0.94 1.04 1.24 1.26 1.05 0.84 0.71 0.61 0.53 0.43 0.37 0.30 0.25 0.24 0.23 0.21 0.20 0.18 0.18 0.22 0.27 0.34 0.38 0.35 0.33 0.31 0.30 0.26
0.03 0.04 0.10 0.20 0.37 0.78 0.81 0.90 1.09 0.89 0.66 0.47 0.29 0.34 0.58 0.60 0.42 0.40 0.43 0.53 0.67 0.81 0.82 0.90 0.97 1.03 0.95 0.86 0.74 0.69 0.60 0.51 0.41 0.33 0.29 0.28 0.28 0.29 0.28 0.27 0.30 0.33 0.33 0.34 0.37 0.40 0.38 0.36 0.33
0.03 0.05 0.25 0.59 0.85 0.92 0.64 0.78 1.04 0.65 0.42 0.30 0.18 0.15 0.18 0.21 0.24 0.35 0.39 0.46 0.47 0.54 0.51 0.53 0.57 0.66 0.71 0.74 0.72 0.71 0.65 0.56 0.46 0.36 0.29 0.30 0.27 0.27 0.29 0.29 0.34 0.37 0.37 0.34 0.32 0.34 0.39 0.45 0.45
0.04 0.03 0.10 0.20 0.27 0.40 0.54 0.93 0.96 0.52 0.24 0.12 0.06 0.05 0.05 0.07 0.10 0.14 0.18 0.20 0.22 0.31 0.34 0.34 0.37 0.38 0.37 0.37 0.40 0.44 0.46 0.41 0.37 0.37 0.29 0.28 0.30 0.30 0.27 0.25 0.25 0.28 0.31 0.32 0.30 0.26 0.28 0.34 0.43
0.03 0.03 0.04 0.05 0.08 0.26 0.61 0.83 0.61 0.31 0.16 0.09 0.07 0.04 0.03 0.03 0.03 0.05 0.08 0.11 0.14 0.16 0.21 0.23 0.24 0.25 0.24 0.24 0.24 0.22 0.25 0.28 0.26 0.25 0.22 0.20 0.26 0.27 0.25 0.22 0.20 0.20 0.23 0.26 0.28 0.26 0.27 0.27 0.29
0.04 0.03 0.03 0.05 0.10 0.20 0.46 0.85 0.84 0.44 0.22 0.11 0.07 0.04 0.03 0.03 0.02 0.03 0.05 0.07 0.09 0.09 0.13 0.17 0.17 0.18 0.20 0.20 0.19 0.14 0.16 0.20 0.20 0.18 0.19 0.20 0.21 0.22 0.20 0.17 0.15 0.14 0.15 0.17 0.22 0.25 0.28 0.33 0.36
0.05 0.04 0.05 0.06 0.07 0.14 0.33 0.50 0.43 0.34 0.22 0.14 0.07 0.03 0.01 0.02 0.02 0.02 0.03 0.06 0.05 0.06 0.09 0.11 0.12 0.13 0.15 0.16 0.17 0.15 0.14 0.14 0.16 0.19 0.22 0.23 0.23 0.23 0.21 0.19 0.16 0.13 0.13 0.15 0.19 0.22 0.27 0.34 0.42
0.07 0.07 0.07 0.08 0.08 0.10 0.17 0.24 0.23 0.22 0.21 0.21 0.11 0.03 0.02 0.04 0.04 0.04 0.05 0.07 0.05 0.05 0.07 0.09 0.09 0.09 0.10 0.13 0.15 0.14 0.15 0.15 0.15 0.15 0.17 0.22 0.27 0.27 0.25 0.23 0.20 0.15 0.11 0.13 0.16 0.17 0.21 0.30 0.40